Theta_e
303 296 288 287 286 293 294 294 294 293 294 292 290 286 286 286 288 293 295 295 295 290 288 290 290 291 292 293 295 296 296 297 297 297 298 297 297 298 297 297 298 298 298 301 303 303 304 304 302 301 300 299 299 298 298 298 297 296 295 292 291 292 291 290 288 286 285 284 283 283 283 282 282 283 283 284 283 283 282 284 284 283 282 282 282 283
301 294 287 292 294 292 292 295 295 294 295 293 288 285 285 288 285 293 295 295 296 289 286 289 289 290 291 293 295 296 296 295 296 296 296 296 297 297 297 298 298 298 301 301 303 303 303 301 301 300 298 299 297 298 298 297 297 296 295 293 292 292 291 290 288 287 286 286 285 284 284 283 283 283 283 282 283 283 284 284 283 283 282 282 282 283
294 288 292 294 294 294 294 296 295 293 290 291 286 285 284 285 291 294 293 295 295 290 287 290 288 289 291 293 294 295 295 295 296 296 296 296 295 296 298 298 298 297 297 298 302 303 302 302 301 299 299 298 298 297 297 297 296 295 295 293 292 291 291 290 289 288 286 287 287 286 286 285 283 284 284 283 284 284 283 283 283 283 282 282 281 281
292 293 295 297 295 294 296 295 294 293 292 287 285 284 284 287 284 283 290 292 295 289 287 289 286 289 292 293 293 295 295 295 299 301 300 299 296 296 297 298 298 298 296 297 297 299 301 301 300 298 298 298 297 297 297 297 296 296 295 294 292 291 291 290 290 290 288 288 288 287 286 284 283 282 284 283 283 282 282 282 283 282 282 282 281 281
292 295 294 295 294 294 293 294 293 288 285 288 290 285 284 285 286 285 286 290 290 290 290 287 286 286 290 290 291 294 295 296 297 296 296 295 299 298 298 297 298 297 299 299 299 298 297 299 299 298 298 298 297 297 297 297 296 296 295 294 293 292 291 290 290 289 288 288 286 285 284 284 283 283 281 281 280 280 281 282 281 281 282 282 281 280
296 295 295 294 293 295 293 290 292 290 284 285 287 287 287 287 285 286 288 287 284 282 286 287 279 278 286 288 290 296 294 294 295 295 296 297 297 296 295 296 297 299 300 299 299 300 301 300 299 298 298 297 297 297 298 298 297 295 295 294 293 292 291 290 289 289 288 287 285 283 282 280 280 279 279 279 279 279 280 280 281 281 282 281 280 279
294 293 295 293 294 293 293 290 292 289 284 282 283 288 288 286 285 285 285 283 279 277 284 289 279 276 284 287 290 290 290 290 293 292 292 293 295 295 296 297 296 297 297 298 298 298 299 299 300 299 298 298 297 298 298 297 297 295 295 294 293 292 292 291 289 288 289 286 285 284 283 282 281 281 282 282 282 281 281 281 281 281 281 281 280 279
297 295 293 294 293 292 289 288 291 288 283 283 285 287 285 284 283 284 283 282 282 286 288 289 285 277 279 285 290 289 288 288 289 290 291 293 295 295 296 296 295 296 296 296 296 297 297 298 297 298 299 299 299 298 297 297 296 295 294 294 293 292 292 291 289 288 288 286 285 284 284 284 283 283 282 283 282 283 282 280 280 280 279 280 280 279
296 293 292 292 292 290 289 290 291 292 282 285 285 288 285 286 286 286 282 282 283 281 280 284 288 280 278 285 287 286 286 286 288 289 290 293 294 294 293 294 294 295 295 295 295 295 296 297 298 298 299 300 299 298 297 297 296 296 294 293 292 292 291 291 289 288 288 288 286 285 284 284 284 284 283 283 283 281 282 279 279 279 279 279 279 279
294 292 293 294 289 286 291 290 289 291 286 290 289 289 288 288 287 286 280 281 280 279 276 281 286 277 278 282 286 286 284 285 285 288 290 293 293 292 293 293 295 294 294 295 295 295 296 296 297 298 299 299 299 300 299 297 295 294 293 293 292 291 291 291 289 289 287 287 287 285 284 283 282 283 283 282 280 280 280 279 278 278 278 277 277 278
292 297 295 293 291 293 288 290 290 290 291 292 290 288 287 288 285 283 282 281 278 275 277 282 285 282 273 280 283 283 282 284 285 288 290 292 293 294 294 294 294 295 295 296 295 296 297 298 297 297 297 298 299 298 298 296 295 293 293 292 292 292 291 290 289 288 287 287 286 285 284 284 283 283 282 281 280 280 280 279 278 277 277 277 277 276
294 293 291 292 296 295 293 290 294 292 290 290 286 285 285 282 283 281 280 281 274 274 278 279 282 284 274 277 284 287 285 285 287 285 288 289 290 292 292 293 294 294 295 295 295 295 296 297 297 297 297 298 298 298 297 295 295 294 293 292 292 291 291 290 289 288 287 286 286 285 285 284 284 283 282 281 280 280 279 278 277 277 277 277 277 277
289 288 291 294 292 292 292 288 290 290 291 290 287 285 279 277 278 273 275 274 275 275 277 280 282 278 277 281 286 287 286 286 287 289 290 291 291 291 292 293 294 294 294 293 294 294 295 295 296 295 295 296 296 297 297 296 295 294 293 292 291 291 291 290 289 287 287 286 286 285 285 284 284 283 283 282 280 280 279 278 278 277 276 276 276 275
284 287 292 292 292 294 291 284 283 282 286 286 283 280 277 273 272 270 273 275 275 279 279 279 280 277 279 284 287 286 288 290 288 290 291 292 291 291 292 293 294 294 292 293 294 294 294 295 295 295 295 296 296 296 297 296 294 293 294 293 292 291 291 290 289 287 286 286 285 285 285 284 284 283 283 282 281 280 279 279 278 278 277 276 276 276
278 279 287 288 285 290 290 289 286 283 283 282 288 284 280 278 273 269 272 270 273 276 281 282 276 274 277 281 287 288 290 291 290 291 292 289 289 290 292 292 291 292 292 293 294 294 294 295 295 295 295 295 295 295 296 296 295 293 292 293 292 291 291 290 289 287 286 286 285 285 285 284 284 283 282 281 281 280 279 278 278 277 277 276 276 275
284 281 287 290 291 289 289 290 290 286 283 285 284 286 282 279 281 274 276 275 273 276 276 276 276 279 281 289 290 290 289 289 290 290 289 290 289 288 290 291 291 292 293 294 294 294 294 294 294 295 295 295 295 294 294 295 295 294 294 293 292 292 291 290 289 287 287 286 286 285 284 284 284 284 282 281 282 280 280 279 278 277 277 277 276 276
281 279 288 292 289 286 286 289 288 289 277 283 284 281 282 283 280 276 279 282 280 277 274 279 279 283 287 288 288 289 289 289 288 289 288 288 289 288 289 290 291 292 293 294 294 294 294 294 295 295 294 295 295 293 293 293 293 293 294 293 292 292 291 290 289 288 287 286 285 284 284 284 283 282 281 280 280 280 280 279 278 277 277 277 277 277
277 279 287 288 288 288 289 287 290 290 289 283 280 283 287 287 283 277 273 275 274 272 274 278 275 278 277 275 286 287 286 288 287 288 288 289 288 288 289 291 292 293 293 293 294 293 294 294 294 295 295 294 294 294 293 293 292 292 293 293 293 291 290 290 289 288 286 285 285 284 284 284 283 282 281 281 280 280 279 278 278 277 277 276 277 277
284 277 284 285 287 290 289 289 288 290 289 285 282 287 280 275 274 278 277 269 269 268 271 275 277 278 278 278 281 283 284 286 287 288 287 287 288 288 290 291 292 293 293 293 293 293 293 293 294 294 294 294 294 294 295 295 294 292 291 292 293 292 291 290 290 287 286 286 285 285 284 283 283 282 281 281 280 280 279 278 277 277 276 276 276 277
286 277 281 285 286 288 286 285 280 282 288 288 287 285 285 280 278 275 277 274 275 270 269 272 275 275 280 281 282 284 287 286 287 287 286 287 288 289 291 292 292 292 292 292 292 292 292 292 292 292 293 293 293 293 294 295 294 292 292 291 291 292 292 290 287 286 286 286 285 284 284 284 283 282 281 281 280 279 279 278 277 276 276 276 277 276
282 285 274 282 288 287 281 283 280 281 279 280 282 281 283 281 284 281 279 275 274 271 271 271 271 276 283 285 286 286 288 286 287 287 287 287 289 290 291 292 292 291 291 291 292 291 291 291 291 291 291 292 292 292 292 293 293 293 292 290 290 289 289 289 288 286 286 285 285 284 283 283 282 281 281 280 280 279 278 278 278 276 276 276 276 275
281 281 277 281 281 281 281 283 283 283 283 281 280 278 280 278 275 272 272 280 274 274 271 270 270 277 284 289 288 288 288 288 289 287 287 287 289 290 291 292 291 290 291 291 291 290 291 291 291 291 291 290 290 291 291 291 291 291 291 291 289 289 288 287 287 286 285 285 285 284 284 283 282 282 281 280 279 279 278 277 277 277 276 275 275 275
282 281 278 277 280 283 283 283 284 284 285 283 283 280 282 281 280 276 270 273 276 275 275 274 270 275 285 287 287 287 289 289 289 287 287 288 290 291 292 291 291 290 290 291 290 290 290 290 290 290 289 289 289 289 289 290 290 290 290 289 288 287 288 288 287 286 285 285 284 283 283 283 282 281 280 279 279 278 278 277 276 277 276 275 275 276
287 279 277 280 283 285 280 283 281 282 284 283 282 281 282 279 278 276 275 276 274 274 272 272 270 277 285 287 286 289 289 289 290 287 287 288 290 291 291 291 291 290 290 290 289 289 289 288 289 289 289 289 289 288 288 289 289 289 289 288 287 286 287 286 286 286 285 284 284 283 283 282 282 281 280 279 279 278 277 277 276 277 276 275 275 275
278 281 279 276 276 278 278 280 280 281 281 282 280 281 281 279 276 277 278 276 272 273 275 272 268 275 285 287 289 289 289 289 289 288 288 288 290 290 291 291 290 290 290 289 289 288 288 287 288 289 289 289 288 288 288 288 288 288 289 289 287 287 286 286 285 285 284 284 283 283 282 282 281 280 280 279 279 278 277 277 276 276 276 275 275 275
280 280 279 273 270 270 269 270 273 277 280 282 282 282 279 278 277 275 273 275 271 274 276 272 274 281 286 288 288 288 288 288 289 288 288 288 289 290 290 290 291 290 290 289 288 287 286 288 288 288 289 289 289 288 288 288 288 288 288 288 288 287 286 285 284 284 283 283 283 283 282 282 281 281 280 279 279 278 277 277 276 276 276 276 275 274
280 281 281 278 275 275 277 279 283 283 281 278 280 281 280 278 278 277 276 273 272 274 274 277 278 279 281 284 285 286 287 286 287 287 288 289 290 290 289 290 290 290 289 288 287 287 287 287 288 288 289 289 288 288 288 287 288 288 288 288 288 287 286 285 284 283 282 282 282 282 282 282 282 281 280 280 279 278 277 276 276 276 275 275 274 274
280 278 280 281 279 280 282 282 284 283 279 281 279 280 281 278 276 276 275 274 277 273 272 278 279 276 280 283 284 285 286 287 287 287 288 289 290 290 289 289 290 290 289 287 287 287 287 288 288 288 288 288 288 289 288 288 287 287 287 288 288 287 286 285 284 282 282 281 281 281 282 282 282 281 281 280 279 278 277 277 276 275 275 275 274 273
278 276 276 274 275 280 282 282 283 282 281 281 281 281 280 281 277 275 275 279 279 274 273 279 280 278 281 283 285 286 287 287 286 287 289 290 290 290 289 289 288 288 287 286 287 287 287 287 287 288 288 288 288 288 288 288 288 288 288 288 287 287 287 285 283 282 281 281 281 281 281 281 281 281 280 280 279 278 277 276 276 275 275 274 274 274
278 278 279 276 277 280 280 281 282 281 281 281 281 281 282 281 280 279 279 280 279 278 280 280 280 280 283 284 286 287 288 287 288 289 290 289 288 288 288 288 288 288 286 286 287 287 287 287 287 287 288 288 288 288 288 288 288 288 288 288 288 287 287 286 283 281 281 281 281 282 281 281 281 280 280 279 278 278 277 276 276 275 274 274 274 273
279 277 280 278 276 279 281 282 281 281 281 281 282 282 282 282 281 282 281 282 281 280 281 281 280 280 285 288 288 289 287 288 289 288 289 288 287 287 288 287 287 286 286 286 287 287 287 287 287 287 287 287 288 288 288 288 288 288 288 287 286 286 286 286 284 281 280 280 281 282 281 281 281 280 280 279 278 278 277 276 275 275 274 273 273 273
276 276 278 277 277 277 280 280 281 282 281 280 280 281 281 280 277 279 278 280 278 278 280 279 278 279 285 288 288 288 287 287 287 287 288 287 287 288 286 286 285 285 285 286 286 287 287 287 287 287 287 287 287 287 287 287 288 288 287 287 287 286 285 285 284 282 281 281 281 280 280 280 281 280 279 279 278 277 276 276 275 274 273 273 273 272
278 276 276 277 275 276 280 281 280 280 279 277 275 281 282 282 282 282 282 282 282 282 278 277 279 284 286 288 286 286 287 287 287 288 286 287 287 286 284 284 285 285 286 286 286 287 287 287 287 287 287 287 288 287 287 288 287 287 288 287 287 286 285 284 284 283 282 281 281 280 280 280 279 279 278 278 277 277 276 275 274 273 273 273 273 273
274 276 276 278 272 275 279 280 280 276 270 272 282 285 284 282 282 281 281 282 283 284 281 284 285 287 287 287 285 285 286 287 287 287 288 287 285 284 284 285 285 286 286 287 287 287 287 287 287 288 288 287 287 287 288 288 288 288 289 288 287 285 285 284 284 283 282 282 281 281 280 279 279 278 278 277 277 276 275 275 274 274 273 273 273 272
276 277 276 277 274 274 278 278 275 269 271 280 286 287 287 286 284 283 283 284 285 285 286 285 285 286 286 287 287 287 288 288 288 287 288 286 285 285 285 285 285 285 286 286 286 287 287 287 287 287 287 287 287 288 288 288 289 289 288 288 287 286 285 284 284 283 283 282 281 281 280 279 278 278 278 277 276 276 275 274 273 273 273 273 272 272
276 277 278 276 277 277 275 274 268 271 280 285 286 285 285 285 282 281 281 284 285 285 285 284 285 286 287 286 286 286 286 286 287 287 286 286 286 285 284 284 285 285 285 286 285 286 286 286 286 286 286 288 288 288 288 288 289 288 288 288 287 287 285 284 284 283 283 282 281 281 280 279 278 278 277 277 277 275 275 274 273 272 273 272 272 272
279 276 277 274 276 270 273 273 274 280 280 281 280 282 281 279 280 279 276 280 285 284 283 282 282 282 282 283 284 284 285 285 284 286 286 285 285 286 285 285 285 285 286 286 286 285 286 286 286 286 287 287 287 287 287 288 288 288 288 288 288 287 286 285 284 284 284 283 282 282 281 279 278 278 278 277 276 275 274 274 273 273 273 272 272 271
280 275 278 273 273 277 273 272 273 272 270 275 281 284 287 286 286 283 280 277 284 284 284 282 281 282 281 282 283 282 283 280 279 280 284 285 286 285 285 286 286 286 286 285 285 285 285 286 286 286 286 286 286 287 287 287 288 288 287 287 287 287 286 286 285 285 284 284 283 282 281 280 278 278 278 277 276 275 274 274 274 273 273 272 271 271
280 280 277 275 274 273 272 270 269 268 273 280 282 286 286 287 286 284 278 275 281 283 283 282 281 281 281 280 280 281 279 275 276 279 283 284 284 285 284 285 285 285 285 285 285 284 285 285 285 285 286 285 285 286 287 287 287 287 287 287 287 287 286 286 286 285 285 285 284 283 282 280 279 278 278 277 277 276 275 274 273 273 272 272 271 271
276 277 277 274 270 274 271 270 270 272 273 281 283 285 286 287 285 280 272 273 280 282 283 282 281 281 282 281 281 279 277 273 275 279 283 284 284 285 284 283 284 284 284 285 285 285 285 285 285 284 285 284 285 286 287 287 287 286 286 287 287 287 286 287 287 287 286 286 285 284 283 280 278 278 278 279 277 276 275 274 273 272 271 271 271 270
275 275 277 273 274 276 277 274 276 277 282 283 284 285 284 286 283 274 270 274 282 281 283 282 281 282 282 280 280 277 279 281 281 283 284 284 283 283 284 284 284 284 284 284 284 285 285 285 285 284 284 285 286 286 287 287 286 286 286 286 286 286 287 288 288 288 287 286 286 286 284 280 279 278 279 278 278 276 274 273 273 272 271 270 270 270
278 276 276 275 273 273 274 273 274 276 280 283 285 285 285 281 273 270 279 284 282 281 282 282 281 281 281 281 280 280 281 282 283 283 283 282 282 283 283 283 284 284 284 285 285 284 284 284 284 284 285 286 286 286 287 287 286 286 286 286 286 286 288 288 288 288 287 287 287 286 285 282 281 279 279 278 277 274 273 273 272 272 270 270 269 269
277 275 274 275 275 276 274 273 273 269 276 284 284 282 283 276 277 282 282 283 284 282 282 281 281 281 281 280 281 281 281 281 281 281 282 282 282 282 282 282 282 282 282 283 283 284 284 283 283 284 284 285 286 286 286 286 285 285 285 285 286 288 288 288 288 288 288 287 286 286 285 284 282 280 278 277 275 274 272 272 271 270 270 269 269 269
280 274 275 276 279 273 274 271 271 275 278 283 281 274 278 281 284 283 282 280 283 283 281 281 281 281 281 280 280 280 280 280 280 281 281 281 282 282 282 282 282 282 283 283 283 283 284 283 284 284 285 285 286 286 286 285 284 285 284 285 286 287 287 288 288 288 287 286 286 286 285 285 284 282 279 276 274 273 272 271 270 270 269 269 268 268
281 278 279 276 279 277 276 278 280 280 280 282 282 281 281 283 284 283 282 281 281 281 282 280 280 281 281 281 280 280 279 280 280 280 280 280 281 281 281 282 282 282 283 283 283 284 283 283 283 284 284 285 285 285 286 285 284 284 284 286 287 286 286 286 286 286 286 286 286 286 285 285 284 282 278 276 274 272 271 270 269 268 268 268 268 267
282 282 283 280 278 282 285 283 282 280 280 280 282 282 281 282 283 283 282 280 281 282 282 281 281 281 281 281 280 279 279 280 280 280 280 281 281 282 282 282 282 283 283 283 283 283 283 283 283 283 283 284 284 285 285 285 285 284 284 286 286 287 287 286 285 286 286 286 286 285 285 285 284 282 278 275 274 273 272 270 269 268 268 268 267 267
282 283 282 278 280 278 274 283 280 279 280 280 281 282 283 283 282 283 282 281 282 282 282 282 282 281 281 281 279 279 279 280 280 280 281 281 281 281 281 281 282 282 282 281 282 283 283 283 282 282 283 282 283 284 284 284 285 285 286 285 286 286 286 286 285 285 285 285 286 286 285 285 284 281 276 274 273 272 271 270 269 268 267 267 267 267
278 285 280 279 277 277 276 279 280 281 280 282 281 280 280 281 282 283 283 283 282 282 282 282 282 281 281 280 280 279 279 280 280 280 280 280 281 281 281 281 281 281 282 282 282 282 282 282 282 282 282 282 283 284 284 284 285 285 286 286 286 286 286 285 285 285 285 285 285 285 285 284 279 278 275 273 272 271 270 270 269 268 267 267 267 266
280 281 274 277 275 277 279 280 280 280 281 281 281 281 282 282 282 282 282 282 282 281 281 281 281 281 281 280 281 280 280 280 280 280 280 280 280 280 281 281 281 281 282 282 282 282 282 282 282 282 282 283 283 284 283 284 285 286 285 286 286 286 285 285 285 285 285 285 285 285 284 283 282 278 275 272 271 271 271 270 269 268 268 269 269 268
278 274 277 276 273 273 274 276 278 273 273 277 279 281 281 282 282 281 282 281 281 280 280 280 280 281 281 281 281 280 279 279 280 280 280 280 280 280 281 281 281 281 281 282 282 282 282 282 282 282 282 282 283 283 283 284 285 285 286 286 286 286 285 285 285 284 284 284 284 284 284 283 280 275 274 272 271 270 269 270 272 271 269 268 271 272
276 277 277 274 273 273 278 279 280 279 278 279 280 281 282 282 282 280 280 280 280 280 281 280 279 279 280 280 281 280 280 280 280 280 280 280 280 281 281 281 280 281 281 282 281 281 281 281 282 282 282 283 283 283 283 284 285 285 285 285 285 285 285 285 284 284 284 284 284 284 283 282 279 274 273 272 270 269 268 268 270 274 274 272 272 273
Wind_Speed
0 1 3 1 1 3 3 3 3 3 3 5 4 4 6 6 9 8 2 1 1 2 9 11 10 15 19 17 16 14 8 10 13 13 11 9 7 9 7 7 7 7 7 5 5 6 7 5 5 5 5 5 5 5 7 7 9 10 10 9 11 9 9 9 8 8 8 8 7 5 7 7 6 6 7 7 6 6 6 5 6 6 6 5 4 4
0 0 2 1 2 3 3 1 2 3 3 4 4 4 7 5 6 5 2 1 1 1 6 6 13 18 17 18 18 15 10 13 12 10 10 9 9 6 6 7 8 7 4 4 6 5 6 5 5 5 4 5 7 7 7 9 10 9 9 10 10 9 10 10 10 9 9 8 8 8 7 7 7 7 8 7 7 7 6 6 6 6 5 5 5 4
1 2 0 2 1 1 2 2 2 2 4 3 4 4 5 7 4 2 3 1 1 1 11 8 11 16 17 21 20 16 10 9 8 6 5 5 5 4 4 6 7 6 5 4 7 6 6 7 6 6 5 5 6 6 8 8 7 8 10 9 9 9 10 10 10 9 9 7 7 7 6 7 5 5 6 7 6 7 8 7 6 6 5 6 5 5
2 1 1 1 1 3 2 4 2 4 4 4 5 3 5 3 6 5 1 2 2 1 10 12 12 15 18 16 16 15 7 2 1 3 3 3 4 5 6 7 5 8 3 2 4 5 7 4 5 4 5 6 6 5 7 8 10 9 9 9 10 10 10 9 10 9 8 7 7 5 4 4 3 2 2 3 4 4 6 6 6 6 6 5 5 5
0 1 1 0 2 2 2 4 4 3 5 4 4 5 4 4 4 2 8 10 9 10 6 8 10 8 7 3 7 4 3 3 1 2 2 3 1 2 4 6 6 3 7 8 7 7 4 5 4 7 5 4 5 7 8 9 10 9 12 11 11 10 10 9 9 9 7 7 6 4 3 3 2 1 1 0 2 4 4 5 6 7 7 6 6 5
2 1 1 2 3 2 3 4 2 2 4 4 1 2 0 3 5 8 8 11 8 4 2 1 8 5 3 9 10 1 3 1 0 1 4 3 1 1 3 5 4 4 3 6 6 6 6 2 4 5 5 5 6 8 9 9 10 9 9 9 9 8 8 9 9 10 8 8 8 8 7 6 4 5 5 7 8 6 7 8 6 6 8 7 6 5
0 2 1 2 2 3 3 4 0 3 3 4 3 0 1 3 5 7 8 5 6 5 1 2 1 9 5 6 5 4 4 8 5 7 9 6 7 6 9 13 12 12 10 9 8 8 8 7 9 1 6 6 8 10 7 6 7 8 8 8 10 9 8 8 8 10 9 8 8 10 9 8 8 8 7 7 7 7 7 6 7 7 7 7 7 6
1 2 2 2 3 2 4 2 2 2 2 5 1 1 2 5 7 8 4 2 7 5 11 8 5 2 7 10 1 1 4 7 6 6 8 9 11 11 10 10 9 7 6 5 5 5 5 6 5 7 4 7 9 7 5 6 6 8 9 7 9 8 8 7 8 10 10 10 9 9 9 8 8 8 7 9 8 7 5 7 6 6 6 7 7 6
1 1 1 1 1 2 2 1 2 2 1 4 1 3 7 9 11 5 3 4 5 5 10 1 4 1 3 5 1 2 2 5 10 9 9 8 8 9 9 8 8 7 5 5 5 5 5 5 6 5 6 6 5 5 6 6 6 6 6 6 6 8 8 7 9 10 11 10 9 9 8 8 6 6 5 3 2 5 6 4 4 5 5 6 7 7
1 2 1 1 1 3 2 1 1 1 3 1 4 7 10 9 6 3 1 3 4 1 6 2 3 2 6 5 8 2 7 8 6 6 7 8 6 6 6 5 7 6 5 5 5 5 6 6 6 6 6 6 6 5 4 5 5 5 5 6 7 8 7 7 9 10 11 10 9 9 9 9 7 6 5 4 4 5 4 5 5 5 6 6 6 6
1 2 1 0 2 2 2 5 3 4 4 5 8 6 7 8 3 3 2 1 2 1 1 6 5 3 5 5 5 6 4 1 6 5 6 7 9 6 5 5 5 5 5 5 5 6 7 7 6 6 7 7 6 5 4 5 5 4 5 5 7 9 7 7 9 10 11 10 9 9 9 10 9 8 7 7 6 5 5 6 6 6 6 5 6 6
1 0 0 1 2 3 2 5 2 0 1 2 3 4 8 4 4 1 0 1 2 2 1 5 3 4 6 5 6 6 2 3 6 5 5 5 4 4 5 5 5 5 6 5 7 8 10 10 7 6 6 7 6 5 5 5 4 5 5 5 7 7 8 7 8 9 10 10 10 8 9 10 9 9 8 9 8 8 8 7 7 6 6 6 6 5
2 1 1 3 2 3 2 4 0 0 0 1 6 5 6 6 6 3 2 4 3 4 2 0 4 5 3 5 10 5 5 5 3 3 2 0 1 2 3 4 5 5 5 6 9 9 9 10 9 6 6 7 6 5 5 5 5 5 5 6 7 9 8 9 8 10 10 10 10 10 9 9 8 9 9 8 8 7 8 7 7 7 7 6 6 6
3 0 2 2 2 2 2 5 7 4 2 8 4 4 4 4 4 5 4 3 4 2 3 2 3 3 5 6 1 5 4 5 5 4 2 0 1 5 5 5 5 5 6 9 10 10 10 10 9 6 7 8 7 6 5 4 4 5 5 6 7 10 8 8 9 10 11 11 10 10 9 9 8 9 9 8 8 8 7 7 7 7 7 7 7 7
5 4 2 2 4 1 2 3 1 3 5 4 3 2 1 1 1 4 3 5 8 8 13 2 2 2 9 4 3 5 5 4 4 4 1 7 6 6 5 4 6 7 8 8 10 11 11 10 9 7 7 8 8 6 5 4 4 4 5 6 8 9 8 8 10 9 11 10 10 9 9 9 8 8 8 8 7 8 8 7 7 7 7 7 6 6
3 5 2 2 0 1 3 1 1 2 3 2 2 0 1 2 1 3 4 5 4 7 7 3 2 4 5 9 4 3 4 4 1 6 7 7 5 5 5 6 7 8 8 9 11 12 11 10 10 9 9 10 10 7 6 6 6 5 6 7 8 9 9 8 9 9 10 10 9 9 10 10 9 7 7 7 7 7 8 7 8 7 7 6 6 5
4 2 5 5 4 2 2 1 0 1 2 4 3 2 2 4 4 2 4 6 5 3 6 2 5 8 6 7 3 8 11 11 7 6 5 4 5 5 5 6 7 9 8 10 11 9 11 13 13 11 9 10 11 9 6 6 5 6 7 7 8 8 7 7 8 9 9 9 9 10 10 10 9 10 10 9 9 9 8 8 7 7 6 6 6 5
1 11 11 3 2 0 0 1 1 2 0 2 1 2 7 2 2 2 2 4 3 4 6 5 8 11 5 6 3 10 11 9 6 7 5 4 5 6 6 10 10 11 9 9 9 7 8 9 11 11 10 11 13 13 10 7 5 4 5 6 9 7 7 8 7 8 8 9 10 10 11 11 11 10 9 9 9 8 8 7 7 6 6 7 6 6
2 6 1 1 2 1 2 1 0 1 1 1 1 3 3 3 3 2 1 3 4 5 4 6 8 11 5 6 4 8 10 10 9 10 5 6 6 6 8 10 11 10 9 8 7 8 7 9 11 12 12 12 11 12 13 11 6 5 5 5 7 9 8 7 7 6 7 8 8 8 10 11 10 9 9 8 8 8 9 9 8 8 8 6 7 7
2 1 4 0 3 0 1 1 3 3 1 1 4 2 2 2 4 3 0 3 0 5 3 5 7 11 5 4 5 10 12 7 10 10 5 6 7 8 9 10 11 10 7 6 7 6 6 7 7 9 11 12 12 12 12 13 9 8 6 6 6 7 7 5 6 6 8 8 8 8 8 10 10 10 10 9 9 9 10 10 9 9 8 9 7 7
3 1 4 4 6 5 3 1 1 1 3 1 1 1 0 1 1 2 1 2 2 2 3 5 10 9 12 4 8 12 11 6 9 8 4 4 6 8 9 10 10 8 6 7 8 7 7 7 7 8 8 8 9 9 10 11 12 12 8 6 6 7 8 7 6 6 7 7 9 10 11 11 10 11 9 10 10 10 9 9 9 9 8 7 8 8
1 2 4 9 10 6 5 2 2 3 1 2 1 3 2 1 4 4 7 1 1 0 3 2 11 12 18 7 8 9 6 9 10 5 5 5 8 9 10 10 10 6 6 7 6 6 6 7 8 8 8 6 8 9 11 12 11 11 10 8 6 6 6 7 6 6 7 7 8 11 10 11 10 10 10 11 10 10 9 9 9 9 8 9 8 8
1 2 2 6 4 11 5 5 4 3 1 3 1 2 2 0 1 1 4 5 4 3 1 3 4 14 7 2 5 4 7 9 9 5 5 5 8 9 9 9 8 5 6 7 7 5 6 6 7 7 8 8 8 8 9 9 10 11 11 10 6 6 8 7 7 7 7 8 8 10 9 9 10 10 10 11 10 11 10 9 9 9 10 9 8 8
1 1 3 6 7 1 2 2 4 1 1 3 1 2 0 2 2 3 5 4 4 5 2 3 4 12 9 3 4 7 8 8 9 5 4 5 7 8 9 10 9 7 6 6 5 5 5 6 6 8 9 10 9 8 8 8 8 9 9 9 7 7 8 7 7 7 6 7 9 9 9 11 9 10 11 12 11 12 11 10 9 9 10 9 8 9
3 0 3 5 6 7 3 3 2 1 1 1 3 2 3 2 3 0 0 1 1 4 7 2 8 11 8 4 8 9 12 14 12 6 3 6 7 8 8 8 7 6 7 7 6 5 5 6 7 8 9 9 9 9 8 8 8 8 10 10 9 8 7 7 6 6 6 7 9 9 10 11 10 12 13 13 10 12 11 11 10 9 10 9 9 9
1 3 1 2 3 7 8 8 9 12 12 11 5 2 1 4 5 1 2 1 3 4 3 3 8 15 15 13 13 12 13 15 13 6 3 4 6 7 7 9 10 7 7 6 5 6 6 7 7 9 11 10 10 9 9 9 8 8 8 9 8 8 7 7 6 6 6 6 8 9 11 11 12 13 13 12 11 11 11 10 10 10 9 10 10 9
1 3 2 3 3 6 7 7 8 4 8 7 16 13 9 2 5 4 2 2 6 6 7 12 13 16 18 16 13 15 15 15 14 7 7 9 9 8 6 8 10 9 7 6 5 6 7 8 10 10 10 10 10 9 9 9 10 9 8 9 8 7 7 7 6 6 6 7 8 9 10 11 12 11 11 11 11 9 9 10 10 10 11 10 10 10
1 3 6 8 8 11 8 10 14 9 10 16 14 16 12 4 7 6 7 9 4 3 10 9 8 6 14 16 16 16 17 15 10 6 8 9 10 11 9 11 15 13 8 5 6 9 11 11 11 11 11 12 12 12 11 9 8 8 9 10 9 7 7 7 6 6 6 6 8 9 10 10 10 10 11 10 10 10 10 10 10 10 9 9 11 10
0 2 4 4 8 9 9 13 16 12 9 12 15 15 14 9 7 10 12 16 6 5 13 16 14 13 18 17 17 17 17 12 6 8 9 9 10 10 11 16 17 14 7 6 8 10 11 12 12 13 13 13 13 14 14 12 11 10 11 9 7 7 9 8 5 6 6 7 8 10 9 9 8 8 9 10 10 11 11 11 10 10 9 9 9 8
0 4 3 4 7 12 11 13 13 11 9 12 14 14 12 11 12 12 15 14 11 13 17 17 16 19 21 18 17 19 10 5 8 8 8 9 12 11 16 19 18 11 8 12 13 13 12 13 13 13 14 14 15 15 15 14 12 12 12 12 9 8 8 8 6 6 7 7 9 9 9 9 9 9 10 10 11 11 10 10 10 10 10 10 9 9
2 4 6 5 6 12 10 8 6 7 7 14 20 14 12 12 12 12 9 11 10 12 16 16 17 19 17 15 15 10 4 7 9 11 12 11 10 16 20 19 13 12 14 14 14 14 13 14 14 14 14 15 15 15 14 13 13 13 12 10 8 8 8 7 8 7 6 8 8 9 9 9 9 9 11 11 10 10 11 10 10 9 9 9 8 9
1 4 5 3 7 11 6 4 10 11 12 15 15 14 12 10 8 6 5 5 4 10 12 10 10 13 13 12 12 9 7 9 12 13 12 10 16 19 16 16 16 16 15 15 15 15 16 17 17 17 16 16 17 16 15 15 15 14 13 10 8 8 6 7 8 8 8 8 8 7 8 9 10 10 11 10 11 11 10 9 10 9 8 9 10 9
1 1 4 4 7 10 9 9 13 15 10 8 4 3 5 8 8 8 9 8 9 7 7 9 13 15 17 14 12 8 12 14 15 15 10 16 17 15 16 15 15 16 16 15 15 16 17 17 16 17 17 16 17 17 17 17 15 15 14 12 10 7 6 7 8 9 9 9 8 9 8 9 9 10 10 10 10 10 9 10 10 9 10 11 9 8
1 1 2 1 3 9 14 13 14 7 9 4 5 11 8 10 8 8 10 10 8 3 6 10 17 19 17 12 10 13 13 15 15 12 15 13 13 13 16 13 15 16 17 17 18 17 17 17 17 17 18 18 18 17 17 16 15 15 14 12 10 8 8 7 8 8 9 9 9 9 9 9 9 10 10 9 9 9 10 10 10 9 7 6 7 9
1 1 3 2 2 7 10 11 8 10 6 5 16 20 13 5 5 7 11 10 11 13 16 18 17 14 14 13 14 15 14 14 13 17 11 14 14 15 16 18 19 20 21 21 22 22 20 20 20 20 21 21 20 17 17 16 15 16 15 12 11 9 9 8 8 8 9 9 10 9 8 8 9 10 9 9 10 10 11 9 8 8 8 7 8 9
2 1 2 3 3 4 5 3 6 11 12 17 20 12 4 2 2 5 11 9 9 13 18 17 17 19 18 20 22 20 18 16 12 7 12 21 23 23 25 23 25 24 22 20 21 20 22 21 20 20 20 19 19 18 17 16 16 16 16 16 14 13 10 9 9 9 9 10 9 9 9 8 9 9 9 9 10 11 11 8 9 9 8 7 7 7
3 1 0 3 2 3 3 6 11 13 14 10 5 3 3 2 7 9 12 11 12 19 20 19 21 21 21 19 19 21 21 17 14 9 21 25 25 22 23 22 22 20 20 20 19 20 19 19 19 19 19 19 20 20 17 17 17 17 17 17 16 14 13 10 10 10 10 10 10 9 9 8 9 9 9 10 11 11 11 11 10 9 9 10 8 9
5 4 1 3 4 1 4 8 8 7 10 9 3 1 3 3 7 6 2 4 16 18 19 20 20 19 20 19 21 21 18 15 12 10 15 19 20 20 20 20 21 21 19 19 19 19 20 19 18 18 18 19 20 20 18 17 18 17 16 17 16 15 13 12 11 11 10 10 9 9 9 8 9 10 10 9 11 12 12 11 9 10 10 10 9 9
3 2 2 1 5 5 4 5 4 6 8 5 12 8 5 12 5 3 2 6 12 22 22 22 22 22 19 21 21 18 15 13 12 10 12 19 19 18 20 19 20 20 20 19 19 20 20 19 18 18 18 18 20 20 20 20 19 17 17 17 17 15 14 13 13 12 11 11 9 8 8 8 8 9 10 10 11 11 11 11 11 9 9 9 9 10
1 2 1 3 5 6 4 3 7 2 5 13 19 17 19 16 6 4 14 5 19 20 20 17 16 20 13 16 15 14 13 17 17 15 18 20 19 18 18 20 20 20 20 20 19 19 20 20 19 18 18 18 19 19 19 18 17 17 18 18 17 16 15 15 14 13 11 10 9 7 8 7 8 9 9 10 10 9 10 9 8 9 9 9 8 8
1 2 5 7 4 8 8 8 5 5 4 17 12 15 16 12 4 8 9 11 16 18 16 15 16 17 15 18 14 13 9 12 17 19 21 20 21 20 19 19 19 19 20 20 20 21 18 17 17 18 19 18 18 17 16 16 16 17 17 18 17 18 16 16 15 14 12 10 9 8 8 7 8 10 10 9 10 9 9 9 10 10 10 10 8 8
4 1 3 2 4 6 5 5 6 4 4 20 15 15 19 14 8 7 9 13 15 16 15 15 18 18 18 16 16 15 15 19 21 21 22 23 21 21 21 20 20 20 20 19 20 20 18 18 19 19 19 18 18 17 16 16 17 17 17 17 19 20 17 16 15 13 13 12 11 10 9 8 8 9 9 8 6 7 9 8 9 10 10 9 9 11
3 3 5 5 4 3 3 8 10 7 6 18 17 13 20 11 9 9 13 13 14 16 16 17 17 18 18 20 19 20 23 23 23 23 22 21 22 22 22 21 22 21 20 20 20 20 20 18 19 19 19 17 16 16 16 16 18 18 17 19 21 19 17 16 15 14 13 12 11 10 9 9 10 9 7 7 8 9 10 9 10 10 10 10 10 11
0 1 3 4 3 6 7 6 3 1 6 12 16 9 11 11 11 12 13 15 13 13 16 15 16 17 20 20 22 23 22 23 23 21 22 22 22 22 21 21 21 21 21 20 20 20 19 18 17 17 17 17 17 16 16 16 17 16 18 20 19 17 16 15 15 15 14 12 11 11 9 10 11 8 7 8 8 9 9 10 10 10 10 10 10 10
1 1 3 6 3 3 5 5 6 5 6 8 8 9 12 13 14 14 14 15 17 14 15 15 19 21 20 22 22 21 22 20 22 23 23 23 22 21 21 21 21 21 21 20 20 20 18 18 20 19 19 17 17 17 16 16 17 18 19 18 16 16 16 14 14 15 15 14 12 11 10 10 10 7 7 7 8 9 9 10 10 10 9 10 9 10
4 5 6 4 3 10 10 1 4 11 20 21 13 14 15 17 14 13 17 18 15 17 16 17 21 21 21 21 22 21 20 22 24 24 22 22 22 21 21 21 21 21 21 20 20 20 20 20 20 20 21 19 18 19 16 16 15 17 18 16 15 15 15 15 15 16 17 15 13 12 11 12 11 7 7 8 8 9 10 11 11 10 9 10 10 10
4 9 9 4 8 11 4 12 17 17 19 18 15 18 16 17 17 16 16 17 17 18 19 19 20 21 21 20 21 23 24 24 24 23 23 22 22 22 23 23 22 22 22 23 22 22 21 20 20 21 21 20 19 18 17 17 16 16 15 15 15 15 15 15 16 17 16 15 14 12 11 13 10 5 5 7 6 7 7 8 9 10 10 10 11 10
7 9 5 9 13 8 11 15 15 17 16 11 13 16 17 17 18 18 17 17 19 20 20 20 21 21 20 21 22 23 24 23 23 23 21 20 21 21 21 21 21 21 22 21 22 24 22 21 20 22 21 19 18 17 18 17 17 16 15 15 15 14 15 16 16 15 15 16 14 12 11 11 10 7 5 6 7 8 7 8 9 10 12 13 13 12
5 5 4 10 8 9 10 14 19 22 16 19 23 20 19 20 22 22 21 20 21 23 22 21 19 20 20 22 23 22 22 22 21 22 25 23 21 22 23 23 23 23 22 22 22 20 20 21 22 21 20 19 18 18 16 17 17 16 15 14 14 14 15 15 16 16 16 15 12 12 11 9 7 5 5 6 7 7 8 10 11 11 10 10 10 12
6 8 8 9 10 10 13 18 19 17 18 19 17 20 22 21 19 20 19 20 21 22 21 21 21 20 21 21 22 21 22 21 22 22 24 23 23 23 23 23 23 23 24 24 20 21 22 21 20 20 19 18 17 17 16 18 17 16 14 14 13 14 15 16 15 15 14 13 12 12 11 8 5 4 5 6 6 6 5 7 12 11 10 10 15 18
5 6 8 8 8 12 16 16 15 15 16 15 20 22 20 18 18 19 20 21 21 19 20 21 23 25 24 23 20 21 22 22 23 22 23 21 23 23 22 23 23 22 24 24 22 22 22 21 20 19 19 17 15 16 17 17 17 15 15 14 14 14 14 14 13 12 12 12 11 12 11 9 4 4 4 4 5 6 6 5 8 16 18 12 15 19
Wind_Direction
253 18 44 39 332 353 19 22 336 330 308 296 300 296 279 279 282 277 289 149 119 277 250 263 265 271 283 286 285 285 279 252 255 261 261 266 239 228 235 243 236 226 222 201 191 156 149 146 142 145 145 160 172 182 183 184 185 188 187 172 189 188 180 181 179 181 179 179 185 189 196 197 191 194 193 196 193 194 196 193 183 169 174 190 201 192
70 343 38 48 12 360 344 326 328 287 278 294 300 286 282 269 279 293 323 179 107 119 280 286 284 277 283 290 287 289 283 270 263 261 269 267 264 236 228 245 242 234 218 185 113 126 126 141 147 146 155 164 183 198 190 198 195 189 191 186 185 184 189 190 188 181 185 189 188 180 190 187 190 189 193 198 189 190 196 192 177 172 177 188 194 191
68 46 123 28 352 291 260 274 236 265 281 275 246 269 293 279 287 313 93 187 111 62 273 286 288 290 293 285 288 283 266 258 266 265 266 276 295 280 248 257 254 223 221 189 154 161 167 164 162 165 172 195 197 195 199 201 194 194 198 196 185 187 192 194 188 183 188 184 186 184 186 185 191 188 179 179 184 182 185 180 171 172 181 188 189 189
27 225 86 292 344 301 261 203 264 276 246 249 287 263 256 326 22 302 287 100 251 179 288 299 304 288 281 284 274 265 250 256 26 39 358 356 336 331 345 334 352 339 289 231 173 175 166 153 172 170 191 195 191 201 199 200 202 200 203 201 192 191 191 194 192 188 181 181 182 183 168 152 142 162 158 165 172 164 151 174 173 181 183 188 183 188
300 59 29 354 281 307 330 315 283 324 317 283 244 253 306 356 320 274 302 313 292 263 261 297 291 280 249 298 328 15 44 64 8 329 313 302 280 3 326 321 326 6 358 4 0 351 69 168 187 199 203 185 199 207 210 203 202 204 205 202 197 194 193 191 188 183 172 165 157 137 96 68 40 22 34 277 225 190 188 185 188 187 179 186 183 188
131 101 33 257 242 229 339 321 347 27 316 308 89 93 330 301 305 295 299 329 331 318 153 6 348 293 33 347 306 55 7 43 195 35 309 358 91 61 344 319 327 348 4 4 354 357 354 0 193 208 191 199 211 219 221 212 207 204 205 200 199 198 196 189 185 178 172 170 162 155 159 170 176 197 190 203 205 204 203 202 186 184 179 180 181 190
282 107 245 309 332 318 279 266 227 108 297 338 253 243 263 277 277 289 306 4 309 308 291 109 228 288 333 319 321 2 37 36 33 10 358 30 54 57 39 37 32 27 16 6 10 7 5 355 347 272 204 209 217 228 220 216 214 209 207 199 197 199 199 186 179 174 173 174 179 179 181 180 184 189 206 199 200 200 202 173 183 185 169 174 182 190
187 179 215 215 293 291 293 274 53 356 11 281 189 294 320 306 294 288 307 231 258 298 289 249 194 250 316 312 359 349 65 47 35 2 6 24 47 49 47 43 34 21 14 4 353 354 360 341 325 317 269 218 229 231 213 215 211 211 209 201 200 197 197 190 174 176 179 183 183 184 186 187 190 191 192 185 187 178 155 156 173 161 172 178 182 188
37 276 172 297 304 273 298 59 6 1 183 281 4 340 303 275 275 305 292 281 271 325 305 358 146 234 246 264 310 6 42 23 24 14 13 22 51 56 55 43 28 13 2 353 352 356 338 323 314 306 301 291 269 228 216 213 215 212 212 208 202 202 198 193 179 179 184 186 186 185 184 193 196 188 186 167 148 140 151 167 172 177 185 180 179 183
326 43 26 341 88 323 44 322 146 194 298 357 314 276 262 268 260 222 233 271 283 298 290 11 135 284 291 309 330 9 31 8 1 22 17 10 37 64 52 28 12 0 359 345 351 348 326 311 308 300 295 292 277 265 218 214 209 211 205 208 207 211 201 195 187 181 186 188 183 187 190 188 185 175 176 163 170 160 153 177 195 193 188 187 183 187
143 52 17 174 340 11 311 290 208 232 253 328 305 283 290 269 206 144 210 223 336 334 313 17 352 52 290 297 343 15 340 289 22 14 22 25 20 10 13 8 357 341 347 340 345 326 309 302 303 309 308 288 278 264 233 218 213 208 204 213 217 217 205 197 192 183 188 189 190 192 190 187 182 176 172 172 181 171 175 191 199 195 195 185 189 182
91 160 71 20 342 279 235 306 86 75 192 341 316 307 320 320 82 106 308 151 40 301 2 324 7 322 300 306 328 331 9 59 62 44 23 18 21 7 346 341 334 326 335 341 344 329 323 316 307 311 310 308 293 265 243 232 221 219 215 213 226 224 212 200 192 188 191 190 196 195 189 188 184 178 178 179 182 182 187 189 197 194 186 195 186 183
331 80 101 106 234 54 317 302 91 4 154 287 315 338 3 328 350 351 20 346 335 323 279 239 351 330 225 253 290 328 56 56 88 117 116 265 1 340 338 335 325 323 326 345 339 329 324 317 306 313 320 322 311 298 262 245 224 224 228 223 225 230 217 206 192 192 193 192 197 196 193 190 185 185 183 183 181 183 185 187 190 189 190 186 189 193
288 303 336 141 39 14 315 4 333 1 342 356 7 343 7 353 7 330 324 293 281 296 238 253 340 241 252 279 288 90 104 130 159 143 168 174 256 344 343 330 328 340 355 343 334 325 322 323 317 318 332 329 316 309 305 269 228 225 228 234 231 237 218 210 198 193 194 198 197 195 194 191 185 189 186 185 183 185 186 184 191 190 188 190 192 192
351 356 7 11 335 288 11 53 110 239 307 284 306 47 337 345 44 321 333 334 314 297 309 289 31 244 327 269 2 169 128 189 173 161 130 13 18 354 328 340 2 360 341 334 328 323 319 323 328 330 333 333 320 316 322 319 286 239 243 241 242 246 232 215 208 196 196 198 195 193 194 192 189 188 188 186 179 181 183 186 187 189 185 187 195 188
54 245 273 83 358 127 28 216 206 309 298 230 270 129 9 117 148 220 258 293 292 304 312 322 215 259 255 312 304 165 44 50 134 31 25 4 13 350 3 4 354 341 331 335 330 327 330 338 340 337 338 337 330 325 340 337 327 308 272 257 247 244 239 225 213 205 198 198 193 191 193 195 190 188 185 184 182 183 183 187 183 187 183 181 181 185
354 256 335 339 56 19 95 209 328 33 48 300 3 43 271 161 128 232 294 246 271 271 244 233 313 300 314 319 360 348 3 356 8 11 22 360 354 3 4 4 342 332 334 335 329 330 347 346 336 332 335 338 334 329 329 328 323 311 298 282 267 255 248 233 217 207 198 197 193 195 194 192 192 189 189 187 185 183 182 181 182 180 181 176 179 184
29 288 295 323 1 6 319 51 7 330 39 336 2 291 293 152 144 122 274 305 281 292 290 333 297 295 360 309 356 349 348 339 336 345 342 15 12 17 358 347 338 333 331 331 332 343 344 333 329 335 343 346 342 331 320 312 304 303 305 288 275 266 252 242 224 205 196 196 198 196 196 196 195 193 191 187 185 179 176 178 179 175 178 185 181 175
39 315 300 79 277 135 344 71 355 276 234 196 233 293 39 342 347 289 290 313 339 297 298 297 299 290 268 252 348 336 333 327 342 335 356 16 24 0 347 338 334 330 332 337 340 336 339 349 346 347 343 342 338 334 327 310 306 310 308 293 274 270 258 245 229 207 196 194 198 200 199 195 194 194 192 189 184 179 181 183 181 182 184 178 178 177
332 193 298 353 18 307 147 131 4 309 215 313 359 318 300 117 220 298 257 267 194 269 315 295 313 285 284 257 321 319 318 323 348 341 5 21 8 350 340 341 332 329 333 333 340 335 336 342 341 341 339 337 338 337 335 330 318 309 307 302 287 276 273 265 235 205 199 196 197 201 198 201 195 193 191 189 185 188 188 186 181 182 183 187 179 181
307 316 278 296 336 335 342 38 320 282 327 324 335 198 34 240 215 233 269 181 205 254 271 302 300 278 277 290 321 305 303 343 348 344 2 2 350 346 343 334 326 325 335 339 333 327 331 333 334 334 335 335 334 332 331 330 328 318 309 302 287 278 272 259 241 213 208 196 203 199 200 198 194 194 190 191 193 193 191 185 184 187 186 175 188 176
306 329 274 310 329 350 271 190 232 274 188 224 183 245 241 31 350 6 302 77 53 58 279 299 270 282 278 314 286 287 316 344 339 346 354 349 342 343 338 332 331 333 336 325 315 321 330 330 330 330 330 333 335 331 334 331 327 324 312 292 287 277 269 259 247 223 213 204 204 206 204 201 197 193 190 193 193 195 192 187 187 186 181 188 187 180
93 275 259 290 267 274 287 220 273 281 236 243 342 262 84 81 146 220 292 292 332 246 181 206 268 270 277 219 263 302 339 327 328 350 348 338 334 330 328 329 325 329 320 309 307 315 324 323 325 326 326 329 332 327 327 328 328 326 321 307 288 276 271 255 249 234 216 208 208 208 205 202 202 195 197 196 195 197 194 190 187 184 189 187 186 184
44 236 287 275 266 257 309 278 267 254 338 326 261 198 37 194 175 183 212 247 285 286 323 252 224 269 300 322 323 327 316 318 321 325 339 330 327 322 325 328 323 321 317 302 296 310 317 323 327 331 333 334 330 328 326 323 320 320 320 309 292 281 276 269 255 247 225 215 213 206 203 207 200 200 202 202 200 198 194 190 189 186 188 187 183 186
21 322 45 296 329 317 309 333 312 214 87 239 304 297 138 85 60 62 36 53 296 230 207 237 267 281 291 327 313 313 319 315 313 314 347 325 319 315 314 316 313 305 305 300 302 316 322 331 335 331 329 328 326 322 320 321 322 325 324 323 307 288 280 271 260 247 237 222 217 211 208 210 202 208 205 206 203 201 194 192 189 188 188 184 188 186
185 262 342 344 330 325 331 333 329 328 327 315 293 113 74 169 154 48 273 210 227 261 189 218 257 263 285 302 299 305 309 307 309 306 316 307 305 306 317 324 321 312 295 295 312 331 338 335 331 334 334 331 327 324 321 320 320 320 321 320 313 296 290 276 259 246 238 231 226 223 218 215 211 212 207 209 208 204 198 194 192 190 189 185 188 187
278 299 244 230 221 238 256 269 282 312 309 293 289 295 281 185 202 181 199 232 223 263 289 255 249 276 287 290 302 306 309 305 306 315 322 321 317 316 317 323 323 308 298 304 321 332 339 339 335 330 327 325 324 324 321 319 317 318 318 318 318 302 285 279 262 248 237 233 234 236 230 225 222 217 210 209 207 202 200 199 196 193 191 186 187 186
267 281 234 222 240 246 253 270 283 295 276 277 284 283 287 201 188 172 186 227 202 6 279 267 254 262 281 293 297 302 301 299 299 313 316 316 320 319 324 326 320 312 303 318 345 349 341 333 331 331 328 328 327 324 322 317 311 314 320 318 318 316 303 285 265 251 240 235 238 240 239 235 233 223 217 213 209 204 200 196 197 199 193 187 189 190
54 279 284 100 254 262 267 273 276 281 265 262 267 272 279 272 163 201 224 238 236 203 246 270 288 292 284 287 293 294 294 298 316 316 316 315 316 323 331 323 315 311 316 351 354 350 340 334 331 330 331 329 327 327 325 323 320 322 322 318 311 322 321 298 268 255 244 241 240 241 240 238 232 225 222 216 211 208 203 199 196 193 192 190 191 193
64 235 279 199 271 278 270 257 259 256 270 278 269 265 266 272 254 220 239 243 219 233 247 264 277 276 278 281 286 286 291 306 311 316 318 325 328 334 328 318 314 319 356 357 351 342 337 334 333 330 328 326 325 324 324 322 319 318 317 314 313 318 318 317 282 258 253 245 246 245 242 237 230 221 218 215 214 211 206 202 197 194 192 193 190 188
117 278 35 318 306 293 288 263 249 254 268 282 287 289 278 267 267 256 248 249 238 254 260 262 267 272 274 278 275 274 295 326 325 322 324 329 343 333 319 317 340 3 353 353 344 339 335 335 334 332 328 325 323 321 318 315 313 312 309 304 304 308 312 315 297 270 254 253 250 248 243 239 233 222 218 216 215 209 206 202 196 194 190 184 180 184
114 266 356 315 320 300 306 338 320 311 300 283 280 284 286 289 289 278 258 235 195 241 260 277 282 279 282 288 290 305 333 332 322 325 332 348 339 332 350 1 359 353 351 345 342 339 340 339 336 332 328 325 323 320 319 317 315 312 304 298 298 296 301 304 294 281 268 258 256 246 240 238 234 226 222 215 214 209 203 197 196 195 188 183 184 182
181 342 344 336 317 282 292 332 321 315 307 310 299 262 267 262 248 266 274 268 237 228 270 282 275 287 297 303 311 333 336 328 329 332 352 345 350 8 359 352 354 349 345 342 339 342 339 336 332 328 325 326 324 322 317 314 312 309 306 300 294 291 294 291 289 283 274 266 258 250 240 235 230 226 221 218 213 206 198 195 195 193 193 193 184 173
92 162 256 274 261 285 308 327 316 324 329 266 301 314 310 284 283 289 287 280 276 240 259 277 290 298 305 323 339 328 332 331 333 352 351 358 10 356 350 348 348 346 344 343 340 337 338 334 332 329 327 324 321 318 315 314 311 307 304 295 294 295 288 286 286 278 274 270 261 254 243 234 227 226 221 215 207 201 197 196 198 194 186 176 181 189
252 260 240 235 257 284 311 321 328 318 272 293 326 308 310 309 326 301 292 297 301 304 307 310 310 323 338 332 328 329 333 344 357 342 358 18 2 355 351 351 347 349 346 344 344 340 334 333 328 327 325 323 320 315 314 313 316 314 309 303 296 290 282 280 279 281 278 272 266 259 249 238 227 226 221 211 204 202 203 193 184 181 178 180 188 190
256 186 293 289 238 299 307 315 321 278 299 311 300 303 15 26 322 325 303 300 313 330 344 334 343 340 343 357 1 359 354 339 340 336 27 8 8 359 0 350 347 340 338 336 331 329 326 322 321 320 317 314 312 312 312 312 313 311 309 309 305 301 289 278 280 282 282 277 270 262 252 241 233 226 219 213 205 203 202 187 182 179 170 173 180 186
190 331 255 279 221 227 257 283 263 292 300 295 311 1 0 8 330 327 307 315 14 20 11 1 1 4 358 358 357 356 346 339 336 346 21 7 355 352 343 336 331 328 324 320 317 312 309 309 309 310 309 308 308 308 309 311 311 308 306 307 306 305 299 290 286 286 285 281 273 267 258 243 234 227 221 212 207 206 203 196 192 188 180 182 182 182
208 169 284 72 284 300 314 306 303 311 302 311 322 237 304 294 296 260 240 276 32 13 16 1 358 356 357 356 356 354 346 348 347 349 358 349 338 333 327 319 315 312 310 309 307 305 307 306 307 308 305 305 305 306 308 308 305 303 302 302 303 303 300 296 290 285 283 281 276 267 261 248 229 226 223 213 211 209 204 198 194 191 180 185 177 181
288 323 300 186 275 352 301 273 267 286 277 311 336 330 302 319 290 299 7 274 13 359 3 2 354 356 354 359 347 349 344 339 328 323 332 325 320 315 310 308 305 304 304 304 304 303 302 302 303 301 300 301 302 304 305 305 304 303 303 303 303 302 299 299 294 288 285 285 277 269 266 254 233 225 225 221 219 209 201 195 193 183 178 187 186 189
294 209 137 260 249 233 238 266 275 242 296 8 352 353 358 335 336 14 298 320 5 359 346 350 350 343 347 343 339 341 345 326 321 312 312 308 304 302 301 302 301 300 300 300 299 297 298 299 299 298 298 297 295 298 299 302 304 302 301 301 301 301 301 302 298 291 285 284 283 279 275 257 237 229 226 229 224 207 202 190 178 177 177 186 186 182
196 248 176 224 245 268 258 258 275 287 14 4 349 4 348 331 351 350 321 341 343 343 340 340 341 331 337 332 342 326 319 300 299 300 303 303 302 302 302 300 297 297 297 296 296 296 296 297 298 298 298 298 297 298 298 300 301 302 301 301 300 300 301 300 298 295 290 285 285 283 272 254 236 234 231 228 225 205 192 182 182 176 178 182 181 179
298 189 237 161 277 262 237 245 251 264 57 1 5 10 12 16 20 338 326 323 322 326 334 334 330 331 330 328 327 316 306 305 301 302 304 304 303 301 302 301 299 297 293 290 291 295 298 301 300 298 297 296 299 301 301 302 303 303 304 303 300 300 300 298 296 294 292 288 285 283 273 260 248 236 238 230 206 186 190 183 178 177 175 176 178 183
268 300 272 268 244 257 312 303 298 291 3 352 346 13 19 8 338 326 317 318 323 321 328 333 332 327 329 321 316 311 309 307 305 304 302 302 302 302 302 301 298 296 296 298 299 298 298 298 297 297 296 299 301 303 303 306 307 308 308 304 301 301 300 300 298 295 289 286 287 285 279 269 260 247 233 220 199 192 189 175 175 175 174 175 179 183
97 320 297 285 352 308 306 307 345 73 318 356 21 6 346 345 329 333 333 320 324 323 327 325 323 323 320 313 313 308 305 305 304 305 304 303 301 300 297 295 294 295 296 295 294 295 295 295 293 294 298 300 302 303 305 305 305 305 305 305 308 308 306 305 302 300 296 290 283 282 278 272 267 250 224 208 193 190 181 178 178 175 177 178 178 182
59 12 356 301 346 305 290 314 21 5 352 358 7 359 340 336 339 335 332 324 325 326 328 322 322 319 313 309 307 309 308 309 306 307 305 303 301 298 296 296 295 295 294 295 296 294 295 296 299 299 299 300 301 303 305 306 304 305 305 305 308 307 304 300 300 300 297 294 289 283 278 274 269 246 218 200 182 184 186 179 172 175 180 176 183 183
47 25 345 334 316 349 310 88 343 351 357 353 344 353 343 344 330 337 332 328 325 323 323 319 315 313 312 313 313 311 308 308 307 305 302 301 302 301 300 299 299 298 298 299 302 304 305 304 302 302 300 304 310 310 306 303 303 301 301 303 305 305 306 309 305 301 299 297 292 285 279 278 274 247 211 193 188 192 187 179 177 178 176 180 185 186
22 22 349 323 337 347 298 11 358 345 343 337 341 336 338 332 335 330 326 323 318 317 314 310 311 311 312 311 308 307 307 307 306 308 309 308 310 306 306 307 307 307 307 308 309 308 306 305 306 306 310 314 307 304 306 304 301 298 301 305 305 306 305 304 302 299 298 296 293 287 281 277 276 241 195 187 191 190 185 179 176 175 177 183 184 188
334 355 341 1 336 340 322 336 332 333 322 324 334 328 330 330 323 322 321 318 316 313 313 313 313 310 312 310 310 308 307 308 310 310 310 310 310 311 310 307 308 308 307 308 310 307 307 308 311 310 308 304 305 304 301 298 296 300 304 306 305 305 305 304 302 300 299 296 293 286 280 278 271 242 180 188 185 185 184 183 179 182 185 185 188 187
290 355 18 334 318 308 303 323 332 328 327 337 336 334 330 325 323 319 318 316 315 314 313 312 311 309 310 309 310 309 309 310 310 312 314 315 314 316 314 314 313 309 307 307 305 308 312 313 309 306 307 308 309 305 300 299 299 303 306 305 305 307 306 304 301 300 298 296 293 287 281 277 267 213 193 183 196 200 193 182 184 194 198 201 191 190
17 26 347 337 334 334 336 330 336 332 328 329 321 321 318 318 314 311 312 313 313 312 313 311 312 311 310 310 311 312 311 312 312 314 315 314 312 311 312 313 311 313 311 308 309 312 307 302 301 305 307 306 307 304 303 301 300 303 305 304 305 308 307 306 304 304 302 301 297 292 289 285 254 188 183 184 186 191 204 213 201 194 189 192 200 203
35 358 355 346 321 314 325 325 320 311 306 310 314 314 315 314 313 313 314 313 312 312 315 316 317 319 316 313 313 312 311 311 312 313 311 311 312 311 310 311 312 311 309 309 309 307 303 302 304 306 307 307 306 301 300 300 301 304 306 306 305 306 306 305 305 304 303 305 303 298 294 289 257 184 181 174 174 182 188 190 217 214 211 202 201 203